Torna al catalogo

GRUS-3D

AttivoScienzaSSO
NORAD 69919·PAYLOAD·🇫🇮 Finland

Lanciato Jul 7, 2026 da Vandenberg Space Force Base

Loading…

Prossimi Passaggi (prossime 24 ore)

TLE

AggiornatoSource: Space-Track

Epoca: Sep 13, 2026, 16:28 UTC

1 69919U 26156BC  26256.68613588  .00000769  00000-0  81442-4 0  9995
2 69919  97.7441 155.9974 0005760 292.3925  67.6683 14.91954625 10191

Traccia GRUS-3D in tempo reale con AllMySat

Download on the App Store